CGPYL KMEM-KORD

Flight info

Callsign CGPYL
Flight time N/A
Altitude 40000
Route JTEEE5 ODATE FTZ TRTLL6
Aircraft C750/M-SBDE3FGHRWXY/S

Departure

Time 2026-05-05 23:01
Airport Memphis International Airport (KMEM)

Arrival

Time N/A
Airport Chicago O'Hare International Airport (KORD)
Time Latitude Longitude Altitude Speed Heading
2026-05-05 22:40 35.05434 -89.98250 327 ft 0 kts 271°
2026-05-05 22:56 35.05446 -89.98259 327 ft 0 kts 330°
2026-05-05 22:56 35.05452 -89.98263 327 ft 4 kts 331°
2026-05-05 22:57 35.05490 -89.98303 327 ft 11 kts 302°
2026-05-05 22:57 35.05533 -89.98365 327 ft 11 kts 326°
2026-05-05 22:57 35.05570 -89.98438 327 ft 11 kts 271°
2026-05-05 22:57 35.05539 -89.98508 326 ft 13 kts 188°
2026-05-05 22:58 35.05433 -89.98509 327 ft 16 kts 179°
2026-05-05 22:58 35.05306 -89.98509 327 ft 19 kts 181°
2026-05-05 22:58 35.05180 -89.98512 327 ft 18 kts 181°
2026-05-05 22:58 35.05065 -89.98547 327 ft 16 kts 206°
2026-05-05 22:59 35.04986 -89.98595 328 ft 9 kts 206°
2026-05-05 22:59 35.04945 -89.98623 328 ft 3 kts 220°
2026-05-05 22:59 35.04944 -89.98624 328 ft 0 kts 221°
2026-05-05 22:59 35.04934 -89.98649 329 ft 6 kts 257°
2026-05-05 23:00 35.04893 -89.98743 330 ft 9 kts 177°
2026-05-05 23:00 35.04610 -89.98736 328 ft 90 kts 179°
2026-05-05 23:00 35.03736 -89.98720 426 ft 142 kts 180°
2026-05-05 23:01 35.02721 -89.98687 1010 ft 149 kts 179°
2026-05-05 23:01 35.01665 -89.98628 1659 ft 155 kts 179°
2026-05-05 23:01 35.00553 -89.98577 2125 ft 174 kts 179°
2026-05-05 23:01 34.99269 -89.98809 2294 ft 204 kts 200°
2026-05-05 23:02 34.97866 -89.99510 2546 ft 232 kts 201°
2026-05-05 23:02 34.96308 -90.00294 3207 ft 243 kts 205°
2026-05-05 23:02 34.95035 -90.01653 4143 ft 247 kts 229°
2026-05-05 23:02 34.94283 -90.03557 5068 ft 256 kts 251°
2026-05-05 23:03 34.94163 -90.05727 6157 ft 258 kts 263°
2026-05-05 23:03 34.94160 -90.07883 6935 ft 258 kts 264°
2026-05-05 23:03 34.94187 -90.10093 7619 ft 264 kts 272°
2026-05-05 23:03 34.94747 -90.12244 8666 ft 274 kts 289°
2026-05-05 23:04 34.95621 -90.14321 9765 ft 276 kts 291°
2026-05-05 23:04 34.96486 -90.16420 10564 ft 282 kts 291°
2026-05-05 23:04 34.97801 -90.18397 10485 ft 324 kts 314°
2026-05-05 23:04 34.99910 -90.19765 10447 ft 365 kts 338°
2026-05-05 23:05 35.02461 -90.20138 11173 ft 369 kts 351°
2026-05-05 23:05 35.05002 -90.20259 11861 ft 371 kts 352°
2026-05-05 23:05 35.07585 -90.20343 12493 ft 373 kts 352°
2026-05-05 23:05 35.10205 -90.19992 13034 ft 386 kts
2026-05-05 23:06 35.12817 -90.19166 13655 ft 389 kts
2026-05-05 23:06 35.15441 -90.18359 14251 ft 389 kts
2026-05-05 23:06 35.18092 -90.17565 14867 ft 390 kts
2026-05-05 23:06 35.20749 -90.16750 15446 ft 395 kts
2026-05-05 23:07 35.23436 -90.15877 16155 ft 403 kts
2026-05-05 23:07 35.26132 -90.15055 16803 ft 398 kts
2026-05-05 23:07 35.28856 -90.14241 17281 ft 403 kts
2026-05-05 23:07 35.31554 -90.13400 17987 ft 405 kts
2026-05-05 23:08 35.34308 -90.12530 18766 ft 408 kts
2026-05-05 23:08 35.37080 -90.11669 19480 ft 412 kts
2026-05-05 23:08 35.39884 -90.10810 20145 ft 418 kts
2026-05-05 23:08 35.42715 -90.09934 20853 ft 422 kts
2026-05-05 23:09 35.45575 -90.09041 21537 ft 426 kts
2026-05-05 23:09 35.48468 -90.08137 22211 ft 430 kts
2026-05-05 23:09 35.51389 -90.07230 22893 ft 434 kts
2026-05-05 23:09 35.54328 -90.06320 23539 ft 438 kts
2026-05-05 23:10 35.57270 -90.05402 24162 ft 442 kts
2026-05-05 23:10 35.60264 -90.04472 24781 ft 445 kts
2026-05-05 23:10 35.63320 -90.03899 25317 ft 442 kts 358°
2026-05-05 23:10 35.66376 -90.03873 25952 ft 437 kts 349°
2026-05-05 23:11 35.69421 -90.04155 26540 ft 439 kts 348°
2026-05-05 23:11 35.72497 -90.04421 27085 ft 444 kts 348°
2026-05-05 23:11 35.75595 -90.04671 27661 ft 447 kts 348°
2026-05-05 23:11 35.78673 -90.05107 28149 ft 444 kts 342°
2026-05-05 23:12 35.81637 -90.05969 28684 ft 443 kts 338°
2026-05-05 23:12 35.84639 -90.06907 29177 ft 447 kts 338°
2026-05-05 23:12 35.87671 -90.07813 29672 ft 450 kts 338°
2026-05-05 23:12 35.90722 -90.08724 30149 ft 453 kts 338°
2026-05-05 23:13 35.93790 -90.09670 30658 ft 454 kts 338°
2026-05-05 23:13 35.96866 -90.10622 31402 ft 450 kts 337°
2026-05-05 23:13 35.99884 -90.11542 32251 ft 442 kts 336°
2026-05-05 23:13 36.02801 -90.12423 33080 ft 432 kts 336°
2026-05-05 23:14 36.05695 -90.13307 33832 ft 424 kts 335°
2026-05-05 23:14 36.08538 -90.14185 34599 ft 415 kts 334°
2026-05-05 23:14 36.11327 -90.15046 35222 ft 412 kts 334°
2026-05-05 23:14 36.14104 -90.15903 35798 ft 410 kts 334°
2026-05-05 23:15 36.16831 -90.16739 36385 ft 408 kts 334°
2026-05-05 23:15 36.19592 -90.17585 36941 ft 408 kts 334°
2026-05-05 23:15 36.22345 -90.18431 37520 ft 406 kts 334°
2026-05-05 23:15 36.25073 -90.19271 38167 ft 402 kts 334°
2026-05-05 23:16 36.27780 -90.20105 38749 ft 399 kts 333°
2026-05-05 23:16 36.30471 -90.20936 39275 ft 397 kts 333°
2026-05-05 23:16 36.33155 -90.21768 39732 ft 397 kts 333°
2026-05-05 23:16 36.35840 -90.22611 39797 ft 407 kts 333°
2026-05-05 23:17 36.38642 -90.23481 39796 ft 419 kts 334°
2026-05-05 23:17 36.41517 -90.24361 39826 ft 429 kts 334°
2026-05-05 23:17 36.47426 -90.26189 39822 ft 445 kts 334°
2026-05-05 23:18 36.53519 -90.28080 39833 ft 456 kts 335°
2026-05-05 23:18 36.59734 -90.30004 39829 ft 463 kts 335°
2026-05-05 23:19 36.66014 -90.31961 39838 ft 466 kts 335°
2026-05-05 23:19 36.72307 -90.33922 39842 ft 467 kts 334°
2026-05-05 23:20 36.78617 -90.35891 39837 ft 468 kts 335°
2026-05-05 23:20 36.84891 -90.37857 39845 ft 467 kts 334°
2026-05-05 23:21 36.91212 -90.39836 39838 ft 470 kts 334°
2026-05-05 23:21 36.97555 -90.41826 39836 ft 469 kts 334°
2026-05-05 23:22 37.03893 -90.43820 39837 ft 468 kts 334°
2026-05-05 23:22 37.10177 -90.45798 39848 ft 470 kts 334°
2026-05-05 23:23 37.16567 -90.47814 39853 ft 470 kts 334°
2026-05-05 23:23 37.22877 -90.49813 39860 ft 471 kts 334°
2026-05-05 23:24 37.29232 -90.51815 39871 ft 470 kts 334°
2026-05-05 23:24 37.35594 -90.53843 39866 ft 473 kts 334°
2026-05-05 23:25 37.41979 -90.55864 39881 ft 472 kts 334°
2026-05-05 23:25 37.48304 -90.57882 39890 ft 472 kts 334°
2026-05-05 23:26 37.54677 -90.59909 39890 ft 472 kts 334°
2026-05-05 23:26 37.61023 -90.61941 39883 ft 473 kts 334°
2026-05-05 23:27 37.67428 -90.63987 39892 ft 472 kts 334°
2026-05-05 23:27 37.73807 -90.66037 39887 ft 474 kts 334°
2026-05-05 23:28 37.80202 -90.68085 39892 ft 475 kts 334°